User: anonymous   Login
Location: Mason Neck State Park
(38.6428°N, 77.1981°W)
Time: 10:10:52
(UTC-04:00)
Language:

Cosmos 1400 Rocket - Orbit

View from above orbital plane
View from above orbital plane
View from above satellite
View from above satellite

Ground track
Ground track

The orbit data is extracted from the following two-line orbital elements,

1 13403U 82079B   16151.12574069  .00000095  00000-0  47499-5 0  9997
2 13403  81.1685 347.9689 0035599 100.2242 260.2999 15.06204442839050
Epoch (UTC): 30 May 2016 03:01:03
Eccentricity: 0.0035599
inclination: 81.1685°
perigee height: 523 km
apogee height: 572 km
right ascension of ascending node: 347.9689°
argument of perigee: 100.2242°
revolutions per day: 15.06204442
mean anomaly at epoch: 260.2999°
orbit number at epoch: 83905

The dashed part of the orbit path shows where the satellite is in the earth's shadow,  

DLR